This is the latest recevied weather packets stored in our database for station/object KC4KQE. If no packets are shown the sender has not sent any weather packets the latest 10 day(s).
| Time | Temp. | Humidity | Pressure | Rain* | Wind** | Luminosity | Snow |
|---|---|---|---|---|---|---|---|
| 1777973056 | 15.56° C | 86% | 1012.7 hPa | 1.27 mm | - | 0 W/m² | - |
| 1777972758 | 15.56° C | 86% | 1013 hPa | 1.27 mm | - | 0 W/m² | - |
| 1777972456 | 15.56° C | 86% | 1013.1 hPa | 1.52 mm | - | 0 W/m² | - |
| 1777972156 | 15.56° C | 87% | 1013 hPa | 1.52 mm | - | 0 W/m² | - |
| 1777971856 | 15.56° C | 86% | 1013.1 hPa | 1.78 mm | - | 0 W/m² | - |
| 1777971556 | 15.56° C | 86% | 1013.3 hPa | 2.03 mm | - | 0 W/m² | - |
| 1777971256 | 15° C | 86% | 1013.5 hPa | 1.78 mm | - | 0 W/m² | - |
| 1777970957 | 15° C | 86% | 1013.5 hPa | 1.78 mm | - | 0 W/m² | - |
| 1777970656 | 15° C | 85% | 1013.4 hPa | 1.52 mm | - | 0 W/m² | - |
| 1777970357 | 15.56° C | 84% | 1013.5 hPa | 1.27 mm | - | 0 W/m² | - |
| 1777970056 | 15.56° C | 83% | 1013.7 hPa | 1.27 mm | - | 0 W/m² | - |
| 1777969756 | 15.56° C | 82% | 1013.6 hPa | 1.02 mm | - | 0 W/m² | - |
| 1777969456 | 15.56° C | 81% | 1013.8 hPa | 1.02 mm | - | 0 W/m² | - |
| 1777969156 | 15.56° C | 79% | 1013.7 hPa | 1.02 mm | - | 0 W/m² | - |
| 1777968856 | 16.11° C | 78% | 1013.9 hPa | 0.51 mm | - | 0 W/m² | - |
| 1777968557 | 16.11° C | 76% | 1013.9 hPa | 0.51 mm | - | 0 W/m² | - |
| 1777968256 | 16.67° C | 75% | 1013.8 hPa | 0.25 mm | - | 0 W/m² | - |
| 1777967956 | 16.67° C | 72% | 1013.7 hPa | 0 mm | - | 0 W/m² | - |
| 1777967656 | 17.22° C | 70% | 1013.6 hPa | 0 mm | - | 0 W/m² | - |
| 1777967356 | 17.22° C | 67% | 1013.6 hPa | 0 mm | - | 0 W/m² | - |
| 1777967057 | 17.78° C | 65% | 1013.5 hPa | 0 mm | - | 0 W/m² | - |
| 1777966756 | 17.78° C | 63% | 1013.5 hPa | 0 mm | - | 0 W/m² | - |
| 1777966456 | 18.33° C | 62% | 1013.6 hPa | 0 mm | - | 0 W/m² | - |
| 1777966158 | 18.89° C | 57% | 1013.5 hPa | 0 mm | - | 0 W/m² | - |
| 1777965856 | 18.89° C | 54% | 1013.5 hPa | 0 mm | - | 0 W/m² | - |
* Rain latest hour (hover to see other rain measurements)
** Current wind speed in m/s (hover to see current wind gust speed)